Flag for Uruguay Weather past 2 weeks in Minas, Uruguay

Now
57 °F

Clear.


Feels Like: 55 °F
Forecast: N/A
Wind: 9 mph from Northeast

Location: Capitan Corbeta

Current Time: Aug 1, 2015 at 7:30:01 PM

Latest Report: Aug 1, 2015 at 6:00 PM


Visibility: 10 mi

Pressure: 29.92 "Hg

Humidity: 72%

Dew point: 48 °F

Location of MinasLocation

Historic Weather in Minas — Graph

°F

Minas temperature yesterday

Maximum temperature yesterday: 68 °F (at 11:00 AM)
Minimum temperature yesterday: 57 °F (at 8:00 PM)
Average temperature yesterday: 62 °F

Past Weeks' High & Low Weather Summary

 TemperatureHumidityPressure
High75 °F (Jul 28, 1:00 PM)100% (Jul 19, 2:00 AM)30.33 "Hg (Jul 19, 2:00 AM)
Low36 °F (Jul 22, 3:00 AM)39% (Jul 22, 1:00 PM)29.62 "Hg (Jul 31, 11:00 AM)
Average54 °F79%30.10 "Hg
* Reported Jul 17 5:00 PM — Aug 1 5:00 PM, Minas, Weather by CustomWeather, © 2015

Note: Actual official high and low records may vary slightly from our data, if they occured in-between our weather recording intervals... More about our weather records

Advertising

Minas weather history for previous 24 hours

 ConditionsComfort  
Time TempWeatherWind HumidityBarometerVisibility
5:00 PM
Sat, Aug 1
61 °FClear.9 mph63%29.92 "Hg10 mi
4:00 PM63 °FSunny.12 mph64%29.95 "Hg10 mi
3:00 PM64 °FSunny.6 mph60%29.95 "Hg10 mi
2:00 PM63 °FSunny.6 mph59%30.01 "Hg10 mi
1:00 PM59 °FSunny.9 mph68%30.04 "Hg10 mi
12:00 PM59 °FSunny.3 mph68%30.07 "Hg10 mi
11:00 AM55 °FPartly sunny.No wind77%30.09 "HgN/A
10:00 AM55 °FPartly sunny.7 mph82%30.07 "HgN/A
9:00 AM50 °FPartly sunny.9 mph94%30.09 "HgN/A
8:00 AM46 °FOvercast.9 mph87%30.09 "HgN/A
7:00 AM46 °FPartly sunny.9 mph87%30.09 "HgN/A
6:00 AM48 °FPassing clouds.8 mph87%30.07 "HgN/A
5:00 AM50 °FPassing clouds.8 mph82%30.04 "HgN/A
4:00 AM52 °FPassing clouds.8 mph82%30.04 "HgN/A
3:00 AM52 °FPassing clouds.12 mph82%30.04 "HgN/A
2:00 AM52 °FPassing clouds.17 mph82%30.04 "HgN/A
1:00 AM54 °FPassing clouds.15 mph82%30.04 "HgN/A
12:00 AM55 °FPassing clouds.20 mph82%30.01 "HgN/A
11:00 PM
Fri, Jul 31
57 °FPassing clouds.17 mph82%29.98 "HgN/A
10:00 PM57 °FPassing clouds.15 mph82%29.98 "HgN/A
9:00 PM57 °FPassing clouds.14 mph82%29.95 "HgN/A
8:00 PM57 °FPassing clouds.17 mph82%29.89 "HgN/A
7:00 PM59 °FPassing clouds.23 mph82%29.86 "HgN/A
Weather by CustomWeather, © 2015

See weather overviewHow to use our weather pages